Location: Starlight Observatory
(38.4029°N, 85.8936°W)
Time: 19:43:13
(UTC-05:00)

Amateur Radio Satellites - All Passes

Search period start: 16 January 2017 19:13
Search period end: 17 January 2017 19:13
Location: Starlight Observatory, 38.4029°N, 85.8936°W

Satellite Date Start Highest point End Downlink Frequencies (MHz)
Time Altitude Azimuth
Cosmos 2499 16 Jan 19:16:29 19:22:29 22° 82° (E) 19:28:14 435.465 / 435.565
CUTE-I 16 Jan 19:17:39 19:21:56 25° 265° (W) 19:26:15 437.470
CUBEBUG 2 16 Jan 19:18:27 19:21:26 19° 68° (ENE) 19:24:24 437.445
CANX-2 16 Jan 19:20:20 19:24:30 60° 75° (ENE) 19:28:42 2200.000
STRAND 1 16 Jan 19:21:12 19:25:32 27° 96° (E) 19:29:51 437.568
GONETS M04 16 Jan 19:21:17 19:26:44 19° 79° (ENE) 19:32:13
HO-68 16 Jan 19:24:26 19:31:36 75° 72° (ENE) 19:38:48 435.675
NOAA 18 16 Jan 19:27:15 19:32:18 37° 262° (W) 19:37:22 137.9125
CINEMA 3 16 Jan 19:29:24 19:33:56 67° 258° (WSW) 19:38:17 145.822/145.860
SEEDS 16 Jan 19:40:43 19:44:51 58° 74° (ENE) 19:49:01 437.485
SRMSAT 16 Jan 19:52:47 19:54:53 12° 176° (S) 19:56:59 437.500
COMPASS 1 16 Jan 19:54:37 19:58:40 54° 75° (ENE) 20:02:47 437.405
UWE-3 16 Jan 19:55:21 19:59:00 30° 71° (ENE) 20:02:39 435.000/436.395/437.385
FUNcube-1 16 Jan 20:04:06 20:07:11 21° 69° (ENE) 20:10:16 145.935
AAUSAT CUBESAT 2 16 Jan 20:10:22 20:14:28 63° 75° (ENE) 20:18:37 437.432
AIST 2 16 Jan 20:19:30 20:22:45 23° 112° (ESE) 20:26:02 435.215
ZACube-1 16 Jan 20:23:46 20:27:35 38° 72° (ENE) 20:31:25 437.345
CUTE 1.7 + AOD 2 16 Jan 20:28:34 20:32:04 25° 265° (W) 20:35:38 437.475
DELFI C3 16 Jan 20:32:59 20:34:52 13° 66° (ENE) 20:36:44 145.870
CUBEBUG 2 16 Jan 20:54:05 20:57:51 31° 263° (W) 21:01:35 437.445
STRAND 1 16 Jan 21:00:07 21:04:41 33° 291° (WNW) 21:09:15 437.568
CANX-2 16 Jan 21:00:22 21:00:43 10° 270° (W) 21:01:04 2200.000
Cosmos 2499 16 Jan 21:06:16 21:14:53 72° 279° (W) 21:22:55 435.465 / 435.565
Oscar 11 16 Jan 21:07:41 21:11:58 75° 258° (WSW) 21:16:19 145.826/435.025
HUMSAT D 16 Jan 21:13:35 21:16:39 21° 68° (ENE) 21:19:45 437.325/437.525
GONETS M04 16 Jan 21:13:42 21:22:23 82° 277° (W) 21:31:11
HO-68 16 Jan 21:15:10 21:19:55 19° 268° (W) 21:24:42 435.675
SEEDS 16 Jan 21:20:08 21:20:53 10° 270° (W) 21:21:38 437.485
UWE-3 16 Jan 21:32:31 21:35:30 19° 266° (W) 21:38:28 435.000/436.395/437.385
COMPASS 1 16 Jan 21:33:20 21:34:32 11° 270° (W) 21:35:44 437.405
FUNcube-1 16 Jan 21:39:41 21:43:15 28° 264° (W) 21:46:50 145.935
SRMSAT 16 Jan 21:41:24 21:43:09 11° 186° (S) 21:44:52 437.500
PRISM 16 Jan 21:42:27 21:46:21 40° 99° (E) 21:50:11 437.425
AIST 2 16 Jan 21:57:24 22:01:03 30° 308° (NW) 22:04:45 435.215
ZACube-1 16 Jan 22:01:36 22:04:02 15° 267° (W) 22:06:27 437.345
DELFI C3 16 Jan 22:05:23 22:09:14 45° 261° (W) 22:13:06 145.870
RS-15 16 Jan 22:22:20 22:24:26 11° 93° (E) 22:26:34 29.354- 29.394
UNISAT 6 16 Jan 22:23:51 22:27:55 35° 98° (E) 22:32:03 437.425
CUBEBUG 1 16 Jan 22:25:46 22:26:57 11° 63° (ENE) 22:28:07 437.445
ESTCUBE 1 16 Jan 22:32:22 22:35:54 23° 68° (ENE) 22:39:28 437.505/2401.250
TIGRISAT 16 Jan 22:38:24 22:42:39 48° 100° (E) 22:47:00 435.000
HUMSAT D 16 Jan 22:48:35 22:52:05 28° 264° (W) 22:55:38 437.325/437.525
ANTELSAT 16 Jan 22:52:26 22:56:51 75° 101° (ESE) 23:01:21 437.575/2403.000
BY70-1 16 Jan 22:56:14 22:59:02 87° 255° (WSW) 23:02:08 436.1900
AO-85 16 Jan 23:02:33 23:03:47 11° 43° (NE) 23:05:00 145.980
VELOX 1 16 Jan 23:02:34 23:05:34 18° 66° (ENE) 23:08:33 145.980
Cosmos 2499 16 Jan 23:06:05 23:09:18 12° 297° (WNW) 23:12:28 435.465 / 435.565
POLYITAN 1 16 Jan 23:13:38 23:13:52 10° 91° (E) 23:14:06 437.675
QB50P2 16 Jan 23:13:40 23:15:00 11° 91° (E) 23:16:20 145.880/145.840
GONETS M04 16 Jan 23:15:59 23:20:39 15° 298° (WNW) 23:25:23
PRISM 16 Jan 23:18:50 23:21:17 15° 294° (WNW) 23:23:43 437.425
ISS 16 Jan 23:34:02 23:37:00 33° 135° (SE) 23:39:59 145.825
POPSAT HIP 1 16 Jan 23:34:49 23:37:48 19° 94° (E) 23:40:46 437.405
JAS-2 16 Jan 23:36:30 23:43:33 65° 102° (ESE) 23:51:12 435.910
DX 1 16 Jan 23:47:50 23:51:28 26° 69° (ENE) 23:55:07 434.975-435.025
DUCHIFAT 1 16 Jan 23:50:35 23:54:01 24° 96° (E) 23:57:26 145.980
NANOSAT C BR1 16 Jan 23:53:42 23:57:23 29° 97° (E) 00:01:02 145.865
UKube-1 16 Jan 23:55:34 23:58:59 23° 68° (ENE) 00:02:23 .
CUBEBUG 1 16 Jan 23:58:14 00:02:37 69° 259° (W) 00:07:02 437.445
SPROUT 17 Jan 00:01:11 00:05:20 54° 74° (ENE) 00:09:30 437.525
UNISAT 6 17 Jan 00:01:13 00:04:23 20° 292° (WNW) 00:07:35 437.425
AISAT 17 Jan 00:03:30 00:07:57 88° 77° (ENE) 00:12:26 437.250
50 SAT 17 Jan 00:04:48 00:08:19 64° 76° (ENE) 00:11:53 437.505
ESTCUBE 1 17 Jan 00:08:31 00:12:32 31° 263° (W) 00:16:35 437.505/2401.250
TIGRISAT 17 Jan 00:16:28 00:18:57 15° 294° (WNW) 00:21:27 435.000
RS-15 17 Jan 00:22:40 00:34:08 62° 112° (ESE) 00:46:07 29.354- 29.394
VELOX 1 17 Jan 00:37:30 00:41:41 40° 261° (W) 00:45:54 145.980
AO-85 17 Jan 00:40:46 00:44:40 71° 241° (WSW) 00:48:33 145.980
BUGSAT 1 17 Jan 00:41:58 00:45:35 32° 98° (E) 00:49:13 437.445
QB50P1 17 Jan 00:43:01 00:47:11 65° 285° (WNW) 00:51:22 145.935-145.965
YUBILEINY 17 Jan 00:44:44 00:50:28 18° 64° (ENE) 00:56:09 435.215
POLYITAN 1 17 Jan 00:45:50 00:50:00 60° 285° (WNW) 00:54:10 437.675
QB50P2 17 Jan 00:46:58 00:51:05 54° 286° (WNW) 00:55:12 145.880/145.840
POPSAT HIP 1 17 Jan 01:09:51 01:13:37 32° 289° (WNW) 01:17:23 437.405
ISS 17 Jan 01:10:44 01:13:31 26° 331° (NNW) 01:16:19 145.825
Oscar 19 17 Jan 01:21:07 01:25:16 24° 95° (E) 01:29:21 437.125/150
JAS-2 17 Jan 01:22:38 01:28:05 25° 296° (WNW) 01:33:54 435.910
DX 1 17 Jan 01:23:56 01:27:34 25° 264° (W) 01:31:13 434.975-435.025
AIST 1 17 Jan 01:24:14 01:27:40 23° 75° (ENE) 01:31:05
DUCHIFAT 1 17 Jan 01:26:10 01:29:36 25° 291° (WNW) 01:33:02 145.980
ITUPSAT 1 17 Jan 01:27:46 01:30:28 15° 63° (ENE) 01:33:10 437.325
NANOSAT C BR1 17 Jan 01:29:44 01:32:55 21° 292° (WNW) 01:36:06 145.865
UKube-1 17 Jan 01:31:06 01:34:51 28° 263° (W) 01:38:37 .
Cosmos 2491 17 Jan 01:31:58 01:37:20 18° 79° (ENE) 01:42:41 435.465 / 435.565
SPROUT 17 Jan 01:40:10 01:41:33 11° 269° (W) 01:42:57 437.525
TISAT 1 17 Jan 01:43:40 01:47:51 71° 259° (W) 01:52:01 437.305
BEESAT 17 Jan 02:03:18 02:07:36 35° 70° (ENE) 02:11:54 436.000
SWISSCUBE 17 Jan 02:04:20 02:08:45 40° 71° (ENE) 02:13:12 437.505
PCSat 17 Jan 02:08:13 02:13:37 86° 115° (ESE) 02:19:05 145.827
BUGSAT 1 17 Jan 02:17:58 02:20:42 18° 293° (WNW) 02:23:27 437.445
MOZHAYETS 4 17 Jan 02:35:32 02:38:56 21° 67° (ENE) 02:42:19
RS-15 17 Jan 02:36:01 02:47:12 43° 316° (NW) 02:58:49 29.354- 29.394
Cosmos 2504 17 Jan 02:36:12 02:43:21 46° 76° (ENE) 02:50:11 435.465 / 435.565
YUBILEINY 17 Jan 02:39:34 02:48:26 87° 267° (W) 02:57:13 435.215
Gurwin Techsat 1B 17 Jan 02:41:14 02:46:35 76° 103° (ESE) 02:51:52 435.225
BEESAT 3 17 Jan 02:42:44 02:46:42 61° 58° (ENE) 02:50:38 437.485
M-CUBED/EXP-1 PRIME 17 Jan 02:51:40 02:55:18 25° 65° (ENE) 02:58:47 437.505
Oscar 19 17 Jan 02:59:54 03:04:39 38° 290° (WNW) 03:09:21 437.125/150
AIST 1 17 Jan 03:01:42 03:05:10 24° 271° (W) 03:08:37
ITUPSAT 1 17 Jan 03:03:09 03:07:48 56° 259° (W) 03:12:30 437.325
AO-7 17 Jan 03:14:44 03:21:24 26° 95° (E) 03:27:59 29.400- 29.500
BEESAT 2 17 Jan 03:18:38 03:22:40 64° 58° (ENE) 03:26:39 435.950
Cosmos 2491 17 Jan 03:24:16 03:33:00 83° 278° (W) 03:41:46 435.465 / 435.565
AUBIESAT-1 17 Jan 03:31:07 03:35:24 53° 70° (ENE) 03:39:28 437.475
ITAMSAT 1 17 Jan 03:33:40 03:38:40 46° 100° (E) 03:43:39 435.822/435.867
BEESAT 17 Jan 03:41:44 03:45:24 22° 265° (W) 03:49:06 436.000
SWISSCUBE 17 Jan 03:43:18 03:46:40 19° 266° (W) 03:50:04 437.505
KKS-1 17 Jan 03:43:29 03:47:33 36° 71° (ENE) 03:51:38 437.445
PCSat 17 Jan 03:54:38 03:57:44 15° 315° (NW) 04:00:51 145.827
MOZHAYETS 4 17 Jan 04:11:40 04:15:50 35° 263° (W) 04:20:02
Gurwin Techsat 1B 17 Jan 04:23:17 04:25:50 14° 299° (WNW) 04:28:24 435.225
BEESAT 3 17 Jan 04:23:23 04:23:46 10° 253° (WSW) 04:24:08 437.485
CUSAT 1 17 Jan 04:24:23 04:28:53 87° 281° (W) 04:34:55 437.405
M-CUBED/EXP-1 PRIME 17 Jan 04:25:39 04:29:37 30° 258° (WSW) 04:33:24 437.505
PHONESAT 2.4 17 Jan 04:26:01 04:28:18 56° 160° (SSE) 04:30:34 2401.200-2431.200
Cosmos 2504 17 Jan 04:30:14 04:36:18 28° 276° (W) 04:42:10 435.465 / 435.565
DANDE 17 Jan 04:37:31 04:40:17 23° 86° (E) 04:43:41 436.750
YUBILEINY 17 Jan 04:39:12 04:43:51 16° 283° (WNW) 04:48:29 435.215
AIST 2 17 Jan 04:42:37 04:44:37 13° 43° (NE) 04:46:38 435.215
CUBESAT XI-V 17 Jan 04:46:03 04:50:44 76° 75° (ENE) 04:55:27 437.345
STARS 17 Jan 04:47:23 04:51:46 84° 75° (ENE) 04:56:10 437.465
RS-15 17 Jan 04:56:09 05:04:24 20° 348° (NNW) 05:12:43 29.354- 29.394
AO-7 17 Jan 05:06:23 05:14:39 66° 292° (WNW) 05:22:51 29.400- 29.500
AUBIESAT-1 17 Jan 05:07:54 05:09:57 13° 262° (W) 05:11:57 437.475
ITAMSAT 1 17 Jan 05:13:57 05:17:47 21° 295° (WNW) 05:21:35 435.822/435.867
KKS-1 17 Jan 05:21:01 05:24:11 19° 266° (W) 05:27:23 437.445
Cosmos 2491 17 Jan 05:26:27 05:31:14 16° 298° (WNW) 05:36:03 435.465 / 435.565
BRITE-PL 17 Jan 05:43:31 05:48:33 78° 102° (ESE) 05:53:08 437.365/2234.400
CUTE-I 17 Jan 05:56:25 05:59:47 17° 92° (E) 06:03:09 437.470
LilacSat-2 17 Jan 05:59:18 06:01:40 16° 93° (E) 06:04:02 437.200
PHONESAT 2.4 17 Jan 06:00:17 06:02:32 46° 357° (N) 06:04:48 2401.200-2431.200
ISS 17 Jan 06:03:08 06:06:01 28° 30° (NNE) 06:08:54 145.825
GOMX 1 17 Jan 06:07:34 06:11:58 51° 99° (E) 06:16:06 467.674
CUSAT 1 17 Jan 06:11:37 06:12:17 10° 304° (NW) 06:12:57 437.405
NOAA 18 17 Jan 06:12:28 06:14:28 12° 90° (E) 06:16:28 137.9125
AIST 2 17 Jan 06:19:21 06:23:36 74° 241° (WSW) 06:27:49 435.215
DANDE 17 Jan 06:20:34 06:23:04 17° 295° (WNW) 06:26:01 436.750
HORYU 2 17 Jan 06:21:55 06:26:23 90° 128° (SE) 06:30:50 437.375
STRAND 1 17 Jan 06:35:36 06:40:07 33° 69° (ENE) 06:44:39 437.568
Cubesat XI-IV 17 Jan 06:37:02 06:42:04 41° 99° (E) 06:47:04 437.490
O/OREOS (USA 219) 17 Jan 06:50:51 06:54:33 26° 103° (ESE) 06:58:14 437.305
HO-68 17 Jan 06:56:29 06:59:58 14° 90° (E) 07:03:25 435.675
NOAA 15 17 Jan 06:59:44 07:05:04 73° 103° (ESE) 07:10:20 137.62
Cosmos 2499 17 Jan 07:00:17 07:06:43 34° 74° (ENE) 07:13:00 435.465 / 435.565
AO-7 17 Jan 07:01:57 07:05:49 14° 312° (NW) 07:09:41 29.400- 29.500
DOVE 4 17 Jan 07:06:09 07:10:24 87° 106° (ESE) 07:14:32 437.250
CANX-2 17 Jan 07:08:52 07:10:29 12° 91° (E) 07:12:05 2200.000
RS-15 17 Jan 07:13:46 07:23:21 25° 25° (NNE) 07:32:45 29.354- 29.394
BRITE-PL 17 Jan 07:24:41 07:26:10 11° 300° (WNW) 07:27:36 437.365/2234.400
CINEMA 3 17 Jan 07:25:37 07:29:15 28° 97° (E) 07:32:56 145.822/145.860
GONETS M04 17 Jan 07:25:56 07:34:24 48° 76° (ENE) 07:42:49
SEEDS 17 Jan 07:28:32 07:29:36 11° 90° (E) 07:30:39 437.485
LilacSat-2 17 Jan 07:32:34 07:36:01 32° 288° (WNW) 07:39:29 437.200
PHONESAT 2.4 17 Jan 07:34:33 07:36:51 74° 11° (N) 07:39:11 2401.200-2431.200
CUTE-I 17 Jan 07:34:56 07:40:09 56° 288° (WNW) 07:45:21 437.470
ISS 17 Jan 07:39:35 07:42:28 29° 227° (SW) 07:45:19 145.825
GOMX 1 17 Jan 07:47:17 07:49:31 14° 297° (WNW) 07:51:42 467.674
NOAA 18 17 Jan 07:50:13 07:55:41 78° 286° (WNW) 08:01:07 137.9125
AAUSAT CUBESAT 2 17 Jan 07:56:27 07:57:35 11° 90° (E) 07:58:43 437.432
CUTE 1.7 + AOD 2 17 Jan 08:13:56 08:18:11 59° 100° (E) 08:22:25 437.475
STRAND 1 17 Jan 08:15:04 08:19:17 26° 265° (W) 08:23:33 437.568
Cubesat XI-IV 17 Jan 08:17:40 08:21:51 24° 294° (WNW) 08:26:03 437.490
O/OREOS (USA 219) 17 Jan 08:30:01 08:33:50 27° 299° (WNW) 08:37:40 437.305
PRISM 17 Jan 08:30:28 08:33:51 24° 69° (ENE) 08:37:14 437.425
HO-68 17 Jan 08:41:18 08:48:31 89° 104° (ESE) 08:55:42 435.675
NOAA 15 17 Jan 08:41:26 08:44:10 14° 299° (WNW) 08:46:55 137.62
CANX-2 17 Jan 08:42:25 08:46:37 53° 286° (WNW) 08:50:48 2200.000
CUBEBUG 2 17 Jan 08:45:16 08:49:29 54° 100° (E) 08:53:49 437.445
Cosmos 2499 17 Jan 08:53:22 08:59:47 37° 272° (W) 09:06:07 435.465 / 435.565
Oscar 11 17 Jan 08:56:57 09:00:21 22° 95° (E) 09:03:44 145.826/435.025
SEEDS 17 Jan 09:01:26 09:05:37 57° 286° (WNW) 09:09:47 437.485
CINEMA 3 17 Jan 09:03:06 09:06:14 21° 291° (WNW) 09:09:24 145.822/145.860
PHONESAT 2.4 17 Jan 09:09:05 09:10:54 20° 208° (SSW) 09:12:42 2401.200-2431.200
SO-50 17 Jan 09:09:39 09:14:22 70° 119° (ESE) 09:19:01 436.795
COMPASS 1 17 Jan 09:14:03 09:18:14 63° 285° (WNW) 09:22:22 437.405
UWE-3 17 Jan 09:21:33 09:25:54 88° 94° (E) 09:30:22 435.000/436.395/437.385
UNISAT 6 17 Jan 09:21:41 09:25:12 25° 69° (ENE) 09:28:42 437.425
GONETS M04 17 Jan 09:23:11 09:30:54 36° 275° (W) 09:38:39
RS-15 17 Jan 09:26:36 09:38:56 66° 54° (NE) 09:50:45 29.354- 29.394
FUNcube-1 17 Jan 09:27:56 09:32:13 55° 101° (E) 09:36:34 145.935
AAUSAT CUBESAT 2 17 Jan 09:29:16 09:33:22 54° 285° (WNW) 09:37:25 437.432
NOAA 18 17 Jan 09:35:12 09:35:24 10° 303° (WNW) 09:35:36 137.9125
TIGRISAT 17 Jan 09:35:50 09:39:40 33° 71° (ENE) 09:43:30 435.000
DELFI C3 17 Jan 09:44:26 09:47:41 23° 95° (E) 09:50:53 145.870
ZACube-1 17 Jan 09:48:48 09:53:08 77° 285° (WNW) 09:57:35 437.345
ANTELSAT 17 Jan 09:49:45 09:53:54 52° 74° (ENE) 09:58:03 437.575/2403.000
JAS-2 17 Jan 09:50:03 09:53:44 19° 62° (ENE) 09:57:35 435.910
CUTE 1.7 + AOD 2 17 Jan 09:51:56 09:53:29 12° 296° (WNW) 09:55:02 437.475
PRISM 17 Jan 10:05:34 10:09:01 25° 264° (W) 10:12:30 437.425
CUBEBUG 2 17 Jan 10:23:43 10:25:41 13° 294° (WNW) 10:27:39 437.445
POPSAT HIP 1 17 Jan 10:27:16 10:28:57 12° 64° (ENE) 10:30:39 437.405
HO-68 17 Jan 10:30:57 10:35:16 17° 304° (NW) 10:39:35 435.675
HUMSAT D 17 Jan 10:32:25 10:36:34 48° 99° (E) 10:40:42 437.325/437.525
Oscar 11 17 Jan 10:32:40 10:36:28 30° 289° (WNW) 10:40:14 145.826/435.025
DUCHIFAT 1 17 Jan 10:41:52 10:44:20 16° 66° (ENE) 10:46:48 145.980
NANOSAT C BR1 17 Jan 10:44:58 10:47:51 18° 67° (ENE) 10:50:45 145.865
SO-50 17 Jan 10:52:24 10:55:18 16° 316° (NW) 10:58:10 436.795
PCSat 17 Jan 10:57:39 11:02:56 49° 58° (ENE) 11:08:10 145.827
UNISAT 6 17 Jan 10:58:20 11:01:50 24° 264° (W) 11:05:20 437.425
FUNcube-1 17 Jan 11:05:59 11:07:59 13° 295° (WNW) 11:10:00 145.935
TIGRISAT 17 Jan 11:13:29 11:16:26 18° 266° (W) 11:19:23 435.000
DELFI C3 17 Jan 11:19:11 11:22:23 23° 290° (WNW) 11:25:33 145.870
ANTELSAT 17 Jan 11:29:23 11:30:54 12° 269° (W) 11:32:25 437.575/2403.000
BUGSAT 1 17 Jan 11:30:47 11:33:41 19° 68° (ENE) 11:36:36 437.445
BY70-1 17 Jan 11:32:51 11:36:16 62° 101° (E) 11:39:27 436.1900
JAS-2 17 Jan 11:33:18 11:38:20 50° 261° (W) 11:43:46 435.910
QB50P1 17 Jan 11:33:28 11:37:39 74° 76° (ENE) 11:41:51 145.935-145.965
POLYITAN 1 17 Jan 11:36:27 11:40:38 81° 78° (ENE) 11:44:50 437.675
QB50P2 17 Jan 11:37:32 11:41:45 89° 60° (ENE) 11:45:58 145.880/145.840
RS-15 17 Jan 11:40:04 11:50:37 36° 255° (WSW) 12:00:51 29.354- 29.394
CUBEBUG 1 17 Jan 11:48:50 11:52:20 23° 95° (E) 11:55:47 437.445
AISAT 17 Jan 11:56:04 11:59:06 18° 94° (E) 12:02:07 437.250
POPSAT HIP 1 17 Jan 12:00:08 12:04:15 54° 260° (W) 12:08:21 437.405
ESTCUBE 1 17 Jan 12:01:46 12:06:16 59° 101° (E) 12:10:43 437.505/2401.250
HUMSAT D 17 Jan 12:09:29 12:11:44 14° 294° (WNW) 12:14:01 437.325/437.525
DUCHIFAT 1 17 Jan 12:15:43 12:19:39 40° 261° (W) 12:23:36 145.980
NANOSAT C BR1 17 Jan 12:19:31 12:23:19 33° 262° (W) 12:27:08 145.865
Gurwin Techsat 1B 17 Jan 12:24:35 12:26:53 13° 61° (ENE) 12:29:11 435.225
VELOX 1 17 Jan 12:28:47 12:32:56 40° 99° (E) 12:37:03 145.980
Oscar 19 17 Jan 12:36:21 12:40:51 31° 68° (ENE) 12:45:22 437.125/150
PCSat 17 Jan 12:41:57 12:45:55 21° 254° (WSW) 12:49:53 145.827
50 SAT 17 Jan 13:04:48 13:08:23 88° 295° (WNW) 13:11:55 437.505
BUGSAT 1 17 Jan 13:05:13 13:08:51 30° 263° (W) 13:12:27 437.445
DX 1 17 Jan 13:12:37 13:16:54 59° 101° (E) 13:21:10 434.975-435.025
CUSAT 1 17 Jan 13:18:42 13:22:16 13° 60° (ENE) 13:25:49 437.405
UKube-1 17 Jan 13:18:53 13:23:04 49° 100° (E) 13:27:14 .
SPROUT 17 Jan 13:24:01 13:28:12 61° 286° (WNW) 13:32:23 437.525
CUBEBUG 1 17 Jan 13:24:53 13:28:33 27° 291° (WNW) 13:32:11 437.445
TISAT 1 17 Jan 13:29:43 13:32:42 19° 94° (E) 13:35:39 437.305
AISAT 17 Jan 13:31:38 13:35:39 36° 289° (WNW) 13:39:39 437.250
Cosmos 2491 17 Jan 13:36:39 13:45:01 47° 76° (ENE) 13:53:22 435.465 / 435.565
ESTCUBE 1 17 Jan 13:40:27 13:42:31 13° 297° (WNW) 13:44:36 437.505/2401.250
YUBILEINY 17 Jan 13:44:45 13:50:57 22° 80° (E) 13:57:08 435.215
AIST 1 17 Jan 13:52:53 13:55:27 15° 86° (E) 13:58:00
Gurwin Techsat 1B 17 Jan 14:00:47 14:06:06 80° 257° (WSW) 14:11:26 435.225
VELOX 1 17 Jan 14:06:10 14:09:04 17° 294° (WNW) 14:11:57 145.980
SWISSCUBE 17 Jan 14:08:15 14:09:43 11° 91° (E) 14:11:09 437.505
AO-7 17 Jan 14:12:08 14:19:18 33° 59° (ENE) 14:26:29 29.400- 29.500
Oscar 19 17 Jan 14:15:34 14:20:05 30° 264° (W) 14:24:38 437.125/150
ITAMSAT 1 17 Jan 14:50:04 14:55:08 61° 73° (ENE) 15:00:14 435.822/435.867
DX 1 17 Jan 14:50:50 14:52:33 12° 297° (WNW) 14:54:15 434.975-435.025
AO-85 17 Jan 14:52:54 14:57:35 53° 117° (ESE) 15:01:57 145.980
UKube-1 17 Jan 14:56:25 14:58:39 14° 296° (WNW) 15:00:53 .
CUSAT 1 17 Jan 14:57:40 15:05:38 67° 78° (ENE) 15:13:09 437.405
TISAT 1 17 Jan 15:04:40 15:08:21 31° 289° (WNW) 15:12:03 437.305
ITUPSAT 1 17 Jan 15:05:02 15:09:35 41° 99° (E) 15:14:06 437.325
Cosmos 2504 17 Jan 15:11:14 15:19:24 45° 89° (E) 15:27:10 435.465 / 435.565
DANDE 17 Jan 15:12:56 15:19:47 36° 73° (ENE) 15:27:15 436.750
BRITE-PL 17 Jan 15:18:04 15:19:13 11° 59° (ENE) 15:20:21 437.365/2234.400
AIST 1 17 Jan 15:28:32 15:32:39 39° 281° (WNW) 15:36:46
Cosmos 2491 17 Jan 15:33:52 15:41:34 36° 274° (W) 15:49:19 435.465 / 435.565
YUBILEINY 17 Jan 15:37:57 15:46:44 74° 279° (W) 15:55:37 435.215
BEESAT 17 Jan 15:41:51 15:46:39 80° 286° (WNW) 15:51:26 436.000
SWISSCUBE 17 Jan 15:43:09 15:47:55 69° 285° (WNW) 15:52:41 437.505
AO-7 17 Jan 16:03:30 16:11:38 56° 257° (WSW) 16:19:51 29.400- 29.500
M-CUBED/EXP-1 PRIME 17 Jan 16:06:54 16:08:55 15° 98° (E) 16:10:55 437.505
MOZHAYETS 4 17 Jan 16:07:31 16:12:07 58° 101° (E) 16:16:40
JUGNU 17 Jan 16:28:59 16:30:30 11° 173° (S) 16:32:01 437.505
ITAMSAT 1 17 Jan 16:32:11 16:34:59 15° 268° (W) 16:37:47 435.822/435.867
BEESAT 3 17 Jan 16:33:07 16:35:09 14° 109° (ESE) 16:37:11 437.485
AO-85 17 Jan 16:35:01 16:38:14 18° 312° (NW) 16:41:19 145.980
STARS 17 Jan 16:39:20 16:42:06 16° 93° (E) 16:44:52 437.465
CUSAT 1 17 Jan 16:40:45 16:46:52 25° 276° (W) 16:52:45 437.405
NOAA 15 17 Jan 16:42:23 16:44:29 12° 60° (ENE) 16:46:37 137.62
ITUPSAT 1 17 Jan 16:43:36 16:47:06 20° 294° (WNW) 16:50:35 437.325
CUBESAT XI-V 17 Jan 16:44:53 16:48:28 21° 94° (E) 16:51:59 437.345
AUBIESAT-1 17 Jan 16:45:32 16:48:45 40° 104° (ESE) 16:51:51 437.475
BRITE-PL 17 Jan 16:51:03 16:56:43 76° 75° (ENE) 17:02:24 437.365/2234.400
DANDE 17 Jan 16:55:17 17:02:36 51° 267° (W) 17:10:34 436.750
O/OREOS (USA 219) 17 Jan 17:01:30 17:05:44 39° 64° (ENE) 17:09:58 437.305
Cosmos 2504 17 Jan 17:04:50 17:12:47 38° 285° (WNW) 17:20:26 435.465 / 435.565
BEESAT 2 17 Jan 17:10:11 17:12:31 15° 110° (ESE) 17:14:52 435.950
KKS-1 17 Jan 17:11:44 17:16:11 90° 29° (NNE) 17:20:36 437.445
GOMX 1 17 Jan 17:12:44 17:18:01 51° 73° (ENE) 17:23:08 467.674
CUTE-I 17 Jan 17:16:33 17:20:47 25° 66° (ENE) 17:25:02 437.470
HORYU 2 17 Jan 17:18:07 17:22:29 68° 75° (ENE) 17:26:52 437.375
HO-68 17 Jan 17:28:23 17:28:34 10° 50° (NE) 17:28:45 435.675
NOAA 18 17 Jan 17:36:10 17:40:20 22° 64° (ENE) 17:44:29 137.9125
M-CUBED/EXP-1 PRIME 17 Jan 17:40:40 17:43:28 24° 295° (WNW) 17:46:09 437.505
YUBILEINY 17 Jan 17:41:16 17:45:13 13° 300° (WNW) 17:49:12 435.215
SO-50 17 Jan 17:42:38 17:46:54 39° 53° (NE) 17:51:05 436.795
MOZHAYETS 4 17 Jan 17:46:24 17:48:44 14° 296° (WNW) 17:51:06
Cubesat XI-IV 17 Jan 17:57:28 18:02:40 59° 73° (ENE) 18:07:53 437.490
BEESAT 3 17 Jan 18:08:39 18:12:21 43° 305° (NW) 18:16:07 437.485
DOVE 4 17 Jan 18:08:57 18:14:03 74° 76° (ENE) 18:18:55 437.250
LilacSat-2 17 Jan 18:12:17 18:16:02 86° 262° (W) 18:19:50 437.200
STARS 17 Jan 18:14:32 18:18:36 40° 288° (WNW) 18:22:40 437.465
JUGNU 17 Jan 18:16:31 18:18:36 12° 184° (S) 18:20:41 437.505
NOAA 15 17 Jan 18:18:14 18:23:30 83° 257° (WSW) 18:28:51 137.62
CUBESAT XI-V 17 Jan 18:21:37 18:25:53 35° 289° (WNW) 18:30:07 437.345
AUBIESAT-1 17 Jan 18:22:18 18:22:46 10° 300° (WNW) 18:23:15 437.475
CINEMA 3 17 Jan 18:25:59 18:29:34 24° 70° (ENE) 18:33:02 145.822/145.860
BRITE-PL 17 Jan 18:32:49 18:35:40 14° 271° (W) 18:38:30 437.365/2234.400
O/OREOS (USA 219) 17 Jan 18:41:47 18:44:48 18° 260° (W) 18:47:49 437.305
BEESAT 2 17 Jan 18:46:13 18:49:56 40° 306° (NW) 18:53:43 435.950
STRAND 1 17 Jan 18:49:17 18:51:23 12° 91° (E) 18:53:28 437.568
GOMX 1 17 Jan 18:52:26 18:56:15 19° 267° (W) 19:00:02 467.674
CUTE-I 17 Jan 18:55:39 19:00:35 39° 262° (W) 19:05:33 437.470
CUTE 1.7 + AOD 2 17 Jan 19:05:03 19:08:52 33° 71° (ENE) 19:12:42 437.475
